LEMUR-2-ANNABANANA (48923 NORAD) Tracking and Keplerian Element Data

This shows tracking and keplerian element data for the satellite.

Feedback or suggestion? Click here.




ElementValue
Catalog48923
NameLEMUR-2-ANNABANANA
Epoch Orbit1680
Epoch Day287.93275671
Epoch Year2021
RAAN55.1621
Inclination97.5208
Eccentricity0.0011731
Argument of Perigee213.3293
Mean Anonmoly146.7201
Mean Motion15.13366199
Decay Rate3.578E-05
L11 48923U 21059AW 21287.93275671 .00003578 00000-0 20402-3 0 9997
L22 48923 97.5208 55.1621 0011731 213.3293 146.7201 15.13366199 16805

Live tracking and technical data element details for LEMUR-2-ANNABANANA (NORAD 48923). LEMUR-2-ANNABANANA can be tracked NOW for your location showing map with azimuth and elevation plus other details from your city location.

Track the satellite on the map from your city or location and see movement details for azimuth, elevation, latitude, longitude, range, height, and movement on the map or in text.







IsCatalogInMostPopularTable: catalog: 48923, numindb: 19
Update: records affected: 1



GetName: 48923 LEMUR-2-ANNABANANA

Hit Count: updated at: Tue, 19 Oct 2021 07:57:32 GMT